Weather History for Manhattan, KS

Change the Weather History Date:

Wednesday, September 4, 2013

  Actual Average Record
Temperature  
Mean Temperature 73 °F 73 °F  
Max Temperature 92 °F 86 °F 100 °F (2000)
Min Temperature 53 °F 60 °F 46 °F (2010)
Degree Days  
Heating Degree Days 0 0  
Month to date heating degree days 0 0  
Since 1 July heating degree days 3 3  
Cooling Degree Days 8 8  
Month to date cooling degree days 29 34  
Year to date cooling degree days 1257 1217  
Growing Degree Days 22 (Base 50)    
Moisture  
Dew Point 57 °F    
Average Humidity 63    
Maximum Humidity 93    
Minimum Humidity 32    
Precipitation  
Precipitation 0.00 in 0.15 in 0.67 in (1999)
Month to date precipitation T 0.61  
Year to date precipitation 21.22 25.15  
Sea Level Pressure  
Sea Level Pressure 30.09 in    
Wind  
Wind Speed 3 mph (SSE)    
Max Wind Speed 12 mph    
Max Gust Speed 16 mph    
Visibility 10 miles    
Events      
T = Trace of Precipitation, MM = Missing Value Source: NWS Daily Summary

Daily Weather History Graph

Daily Weather History Graph

Search for Another Location

Airport:

Trip Planner

Search our weather history database for the weather conditions in past years. The results will help you decide how hot, cold, wet, or windy it might be!

Date:

Astronomy

Sep. 04, 2013 Rise Set
Actual Time 6:58 AM CDT 7:52 PM CDT
Civil Twilight 6:31 AM CDT 8:19 PM CDT
Nautical Twilight 5:58 AM CDT 8:51 PM CDT
Astronomical Twilight 5:25 AM CDT 9:24 PM CDT
Moon 6:11 AM CDT (9/4) 7:12 PM CDT (9/4)
Length of Visible Light 13h 48m
Length of Day
12h 53m
Waning Crescent, 1% of the Moon is Illuminated
Sep 4
Waning Crescent
Sep 5
New
Sep 12
First Quarter
Sep 19
Full
Sep 26
Last Quarter

Hourly Weather History & Observations

Time (CDT) Temp. Heat Index Dew Point Humidity Pressure Visibility Wind Dir Wind Speed Gust Speed Precip Events Conditions
12:52 AM 60.1 °F - 55.9 °F 86% 30.05 in 10.0 mi Calm Calm - N/A   Clear
1:52 AM 59.0 °F - 55.0 °F 87% 30.05 in 10.0 mi Calm Calm - N/A   Clear
2:52 AM 57.0 °F - 54.0 °F 89% 30.06 in 10.0 mi Calm Calm - N/A   Clear
3:52 AM 57.0 °F - 54.0 °F 89% 30.06 in 10.0 mi Calm Calm - N/A   Clear
4:52 AM 55.9 °F - 54.0 °F 93% 30.07 in 10.0 mi Calm Calm - N/A   Clear
5:52 AM 55.9 °F - 54.0 °F 93% 30.08 in 10.0 mi Calm Calm - N/A   Clear
6:52 AM 53.1 °F - 52.0 °F 96% 30.11 in 10.0 mi Calm Calm - N/A   Clear
7:52 AM 60.1 °F - 57.0 °F 90% 30.14 in 10.0 mi Calm Calm - N/A   Clear
8:52 AM 66.0 °F - 59.0 °F 78% 30.14 in 10.0 mi Calm Calm - N/A   Clear
9:52 AM 75.9 °F - 60.1 °F 58% 30.14 in 10.0 mi SW 6.9 mph - N/A   Clear
10:52 AM 81.0 °F 81.6 °F 60.1 °F 49% 30.15 in 10.0 mi SSW 5.8 mph - N/A   Clear
11:52 AM 84.0 °F 84.0 °F 60.1 °F 44% 30.15 in 10.0 mi South 5.8 mph - N/A   Clear
12:52 PM 86.0 °F 85.4 °F 59.0 °F 40% 30.13 in 10.0 mi South 3.5 mph - N/A   Clear
1:52 PM 88.0 °F 86.9 °F 57.9 °F 36% 30.10 in 10.0 mi ESE 4.6 mph - N/A   Clear
2:52 PM 90.0 °F 88.1 °F 55.9 °F 31% 30.09 in 10.0 mi South 10.4 mph 16.1 mph N/A   Clear
3:52 PM 91.0 °F 89.7 °F 57.0 °F 32% 30.06 in 10.0 mi South 10.4 mph 16.1 mph N/A   Clear
4:52 PM 90.0 °F 88.8 °F 57.9 °F 34% 30.06 in 10.0 mi SE 10.4 mph - N/A   Clear
5:52 PM 86.0 °F 85.4 °F 59.0 °F 40% 30.06 in 10.0 mi ESE 5.8 mph - N/A   Clear
6:52 PM 82.9 °F 83.3 °F 61.0 °F 47% 30.06 in 10.0 mi East 5.8 mph - N/A   Clear
7:52 PM 78.1 °F - 60.1 °F 54% 30.07 in 10.0 mi Calm Calm - N/A   Clear
8:52 PM 75.0 °F - 59.0 °F 57% 30.08 in 10.0 mi ESE 3.5 mph - N/A   Clear
9:52 PM 73.0 °F - 59.0 °F 61% 30.09 in 10.0 mi Calm Calm - N/A   Clear
10:52 PM 72.0 °F - 57.9 °F 61% 30.10 in 10.0 mi Calm Calm - N/A   Clear
11:52 PM 73.0 °F - 59.0 °F 61% 30.11 in 10.0 mi SE 3.5 mph - N/A   Clear